Location: Unspecified
(0.0000°N, 0.0000°E)
Time: 17:49:45
(UTC+00:00)

Vanguard 1 - Visible Passes

Search period start: 23 September 2019 00:00
Search period end: 03 October 2019 00:00
Orbit: 654 x 3830 km, 34.3° (Epoch: 21 September)

Date Brightness Start Highest point End Pass type
(mag) Time Alt. Az. Time Alt. Az. Time Alt. Az.
23 Sep 13.7 01:21:56 27° N 01:21:56 27° N 01:31:37 10° NNE visible
23 Sep 13.8 03:34:37 13° NW 03:44:19 18° NNW 03:55:32 10° NNE visible
23 Sep 12.9 18:12:04 10° SSE 18:15:52 12° SE 18:20:26 10° ESE visible
23 Sep 12.2 20:27:09 10° SW 20:37:16 53° SSE 20:37:16 53° SSE visible
23 Sep 13.6 22:48:12 10° WSW 23:28:42 - NE 22:50:01 16° WSW visible
24 Sep 13.7 01:41:23 26° N 01:41:23 26° N 01:52:50 10° NNE visible
24 Sep 13.8 03:56:02 10° NW 04:08:04 16° N 04:17:56 10° NNE visible
24 Sep 12.7 18:30:44 10° S 18:37:21 19° SE 18:44:38 13° ESE visible
24 Sep 12.1 20:47:50 10° SW 20:57:23 61° S 20:57:23 61° S visible
24 Sep 13.8 23:10:03 10° WSW 23:48:09 12° NE 23:49:20 10° NE visible
25 Sep 13.7 02:00:51 24° N 02:00:51 24° N 02:14:15 10° NNE visible
25 Sep 13.8 04:20:09 10° NNW 04:31:46 17° N 04:41:01 10° NE visible
25 Sep 12.4 18:50:27 10° SSW 18:58:34 27° SE 19:04:48 21° ESE visible
25 Sep 12.2 21:08:44 10° SW 21:17:32 60° SW 21:17:32 60° SW visible
26 Sep 14.0 00:07:37 15° NNE 00:07:37 15° NNE 00:10:38 10° NE visible
26 Sep 13.8 02:20:18 21° NNW 02:21:18 21° NNW 02:36:03 10° NNE visible
26 Sep 13.8 04:43:08 10° NNW 04:55:16 18° N 05:04:28 10° NE visible
26 Sep 12.1 19:10:34 10° SSW 19:19:37 38° SE 19:25:00 30° E visible
26 Sep 12.4 21:29:52 10° WSW 21:37:45 51° WSW 21:37:45 51° WSW visible
27 Sep 14.0 00:27:06 18° NNE 00:27:06 18° NNE 00:31:56 10° NNE visible
27 Sep 13.9 02:39:47 18° NNW 02:45:12 19° N 02:58:23 10° NNE visible
27 Sep 13.6 05:05:15 10° NNW 05:18:27 21° NNE 05:27:52 10° NE visible
27 Sep 11.8 19:30:58 10° SSW 19:40:37 53° SE 19:45:17 42° E visible
27 Sep 12.7 21:51:19 10° WSW 21:58:01 39° W 21:58:01 39° W visible
28 Sep 13.9 00:46:36 20° NNE 00:46:36 20° NNE 00:53:24 10° NNE visible
28 Sep 13.9 02:59:17 14° NNW 03:09:11 19° N 03:21:22 10° NE visible
28 Sep 13.4 05:26:51 10° NNW 05:41:18 26° NNE 05:50:54 10° ENE visible
28 Sep 11.7 19:51:35 10° SW 20:01:41 70° SE 20:05:35 55° E visible
28 Sep 13.1 22:13:06 10° W 22:53:26 - NE 22:18:21 29° W visible
29 Sep 13.9 01:06:08 21° N 01:06:08 21° N 01:15:10 10° NNE visible
29 Sep 13.9 03:18:49 10° NW 03:33:06 19° N 03:44:53 10° NE visible
29 Sep 12.2 17:54:48 10° S 18:01:08 24° SE 18:10:44 10° E visible
29 Sep 11.7 20:12:27 10° SW 20:22:55 90° SSE 20:25:57 66° NE visible
29 Sep 13.4 22:35:19 10° W 23:13:00 - NE 22:38:42 20° W visible
30 Sep 13.9 01:25:42 21° N 01:25:42 21° N 01:37:25 10° NNE visible
30 Sep 13.8 03:41:30 10° NNW 03:56:45 21° N 04:08:33 10° NE visible
30 Sep 11.8 18:14:46 10° SSW 18:22:01 35° SE 18:33:34 11° ENE visible
30 Sep 11.9 20:33:33 10° WSW 20:44:24 71° NW 20:46:20 66° N visible
30 Sep 13.7 22:58:00 10° W 23:32:38 - NE 22:59:06 13° WNW visible
01 Oct 13.9 01:45:20 20° N 01:45:50 20° N 02:00:19 10° NE visible
01 Oct 13.7 04:03:37 10° NNW 04:20:03 25° NNE 04:31:59 10° ENE visible
01 Oct 11.5 18:35:04 10° SSW 18:42:54 50° SE 18:53:58 17° ENE visible
01 Oct 12.2 20:54:58 10° WSW 21:06:09 56° NNW 21:06:45 56° NNW visible
01 Oct 14.0 23:52:20 11° NNE 23:52:20 11° NNE 23:53:04 10° NNE visible
02 Oct 13.9 02:05:03 19° NNW 02:09:57 20° N 02:23:52 10° NE visible
02 Oct 13.5 04:25:17 10° NW 04:42:59 30° NNE 04:55:00 10° ENE visible
02 Oct 11.3 18:55:40 10° SW 19:03:51 71° SE 19:14:24 22° ENE visible
02 Oct 12.6 21:16:45 10° W 21:27:10 43° NW 21:27:10 43° NW visible
